sat.trackr.live / text

‹ back to catalog

STARLINK-31674

NORAD 59517 · 2024-073G

PAYLOAD ACTIVE UNKNOWN

§ Identity

Operator
Country
US
Launch date
2024-04-17
Launch site
AFETR
Launch vehicle
Mass (kg)
RCS (m²)

Purposes: comms

External: N2YO · Heavens-Above · Gunter

§ Orbital elements

Epoch: 2026-09-21T08:55:03.218592Z

Period
94.27 min
Inclination
43.0028°
Eccentricity
0.0001200
Mean motion
15.27577740 rev/d
Perigee alt
482.2 km
Apogee alt
483.9 km
Semi-major
6,861.2 km
B*
2.2467e-5
RAAN
292.8279°
Arg perigee
272.6898°
Mean anomaly
87.3816°
Rev number
13,610

§ Raw data

STARLINK-316741 59517U 24073G   26264.37156503  .00000356  00000+0  22467-4 0  99912 59517  43.0028 292.8279 0001200 272.6898  87.3816 15.27577740136109

JSON: /api/v1/satellites/59517 · /tle

For live sub-satellite position, see the globe view (requires WebGL).

§ Visibility from observer

Set your observer location to see the next 7 days of passes ≥ 10°. The values pass through the URL so the page stays shareable.

No JS? Fill the form by hand. The geolocation button needs JavaScript.